Location: East Irvine
(33.6759°N, 117.7598°W)
Time: 22:58:46
(UTC+00:00)

COSMO-SKYMED 1 - Pass Details

Date: 15 November 2025
Orbit: 579 x 581 km, 97.9° (Epoch: 13 December)

Event Time Altitude Azimuth Distance (km) Brightness Sun altitude
Exits shadow 02:42:45 - 356° (N) 2,425 5.6 -23.8°
Reaches altitude 10° 02:44:08 10° 349° (N) 1,899 5.1 -24.1°
Maximum altitude 02:47:45 31° 288° (WNW) 1,035 4.2 -24.9°
Drops below altitude 10° 02:51:21 10° 226° (SW) 1,886 5.7 -25.6°
Sets 02:53:40 0° 216° (SW) 2,781 6.5 -26.1°
